Decimomannu, Italy

4:12 PM CEST on June 24, 2017 (GMT +0200)
Decimomannu Mil

Weather History for LIED - October, 2011

Change the Weather History Date:

Saturday, October 1, 2011

  Actual Average Record
Temperature  
Mean Temperature 70 °F -  
Max Temperature 83 °F 74 °F 86 °F (2001)
Min Temperature 56 °F 55 °F 50 °F (2002)
Cooling Degree Days 4    
Growing Degree Days 20 (Base 50)    
Moisture  
Dew Point 59 °F    
Average Humidity 68    
Maximum Humidity 94    
Minimum Humidity 31    
Precipitation  
Precipitation 0.00 in 0.07 in - ()
Sea Level Pressure  
Sea Level Pressure 30.18 in    
Wind  
Wind Speed 5 mph ()    
Max Wind Speed 18 mph    
Max Gust Speed -    
Visibility 5.9 miles    
Events      
Averages and records for this station are not official NWS values.
T = Trace of Precipitation, MM = Missing Value Source: Averaged Metar Reports

Daily Weather History Graph

Daily Weather History Graph

Search for Another Location

Airport or City:

Trip Planner

Search our weather history database for the weather conditions in past years. The results will help you decide how hot, cold, wet, or windy it might be!

Date:

Astronomy

Oct. 01, 2011 Rise Set
Actual Time 7:19 AM CEST 7:07 PM CEST
Civil Twilight 6:52 AM CEST 7:34 PM CEST
Nautical Twilight 6:21 AM CEST 8:05 PM CEST
Astronomical Twilight 5:50 AM CEST 8:36 PM CEST
Moon 12:05 PM CEST (10/1) 9:50 PM CEST (10/1)
Length of Visible Light 12h 41m
Length of Day
11h 47m
Waxing Crescent, 21% of the Moon is Illuminated
Oct 1
Waxing Crescent
Oct 4
First Quarter
Oct 12
Full
Oct 20
Last Quarter
Oct 26
New

Hourly Weather History & Observations

Time (CEST) Temp. Heat Index Dew Point Humidity Pressure Visibility Wind Dir Wind Speed Gust Speed Precip Events Conditions
12:55 AM 64.4 °F - 57.2 °F 77% 30.18 in 6.2 mi NNW 2.3 mph - N/A   Partly Cloudy
1:55 AM 62.6 °F - 59.0 °F 88% 30.18 in 5.6 mi NW 3.5 mph - N/A   Partly Cloudy
2:00 AM 63 °F - 59 °F 81% 30.21 in 6 mi NW 3.5 mph - -   Mist
3:55 AM 59.0 °F - 57.2 °F 94% 30.18 in 4.3 mi WNW 3.5 mph - N/A   Scattered Clouds
4:55 AM 59.0 °F - 55.4 °F 88% 30.18 in 4.3 mi NNW 4.6 mph - N/A   Scattered Clouds
5:00 AM 59 °F - 56 °F 87% 30.19 in 4 mi NNW 4.6 mph - -   Mist
8:00 AM 57 °F - 54 °F 84% 30.21 in 4 mi Calm Calm - -   Mist
10:55 AM 73.4 °F - 60.8 °F 65% 30.21 in 6.2 mi Calm Calm - N/A   Partly Cloudy
11:00 AM 73 °F - 61 °F 57% 30.22 in 7 mi Calm Calm - -   Scattered Clouds
11:55 AM 77.0 °F - 59.0 °F 54% 30.21 in 6.2 mi SE 6.9 mph - N/A   Scattered Clouds
1:55 PM 82.4 °F 82.0 °F 57.2 °F 42% 30.18 in 6.2 mi South 6.9 mph - N/A   Mostly Cloudy
2:00 PM 82 °F - 57 °F 31% 30.19 in 7 mi South 6.9 mph - -   Mostly Cloudy
3:55 PM 80.6 °F 81.1 °F 59.0 °F 48% 30.15 in 6.2 mi SSE 16.1 mph - N/A   Scattered Clouds
4:55 PM 78.8 °F - 57.2 °F 47% 30.15 in 6.2 mi South 16.1 mph - N/A   Scattered Clouds
5:00 PM 79 °F - 58 °F 38% 30.17 in 7 mi South 16.1 mph - -   Partly Cloudy
5:55 PM 77.0 °F - 59.0 °F 54% 30.15 in 6.2 mi South 18.4 mph - N/A   Scattered Clouds
6:55 PM 75.2 °F - 66.2 °F 73% 30.15 in 6.2 mi South 13.8 mph - N/A   Scattered Clouds
8:00 PM 73 °F - 64 °F 65% 30.18 in 7 mi South 9.2 mph - -   Scattered Clouds
8:55 PM 71.6 °F - 62.6 °F 73% 30.18 in - Calm Calm - N/A   Clear
9:55 PM 69.8 °F - 60.8 °F 73% 30.18 in - SSE 2.3 mph - N/A   Clear
10:55 PM 66.2 °F - 60.8 °F 83% 30.21 in - East 4.6 mph - N/A   Clear
11:00 PM 67 °F - 61 °F 74% 30.21 in 7 mi East 4.6 mph - -  
11:55 PM 66.2 °F - 60.8 °F 83% 30.18 in - NNE 1.2 mph - N/A   Clear